F06AC378 Weather Reports


time (UTC)temp
C
wind
direction
speed
KPH
gust
KPH
rain 1hr
cm
rain 24hr
cm
rain mn
cm
humidity
%
barometer
mb
20260507232537 8 0 0.0 3.2 0.00 0.00 0.00 78 1015.6
20260507232034 8 0 0.0 3.2 0.00 0.00 0.00 78 1015.6
20260507231620 8 54 0.0 3.2 0.00 0.00 0.00 77 1015.6
20260507231036 8 0 0.0 3.2 0.00 0.00 0.00 77 1015.7
20260507230540 8 0 0.0 3.2 0.00 0.00 0.00 77 1015.7
20260507230052 8 0 0.0 3.2 0.00 0.00 0.00 77 1015.8
20260507225536 8 54 0.0 3.2 0.00 0.00 0.00 78 1015.7
20260507225036 8 0 0.0 3.2 0.00 0.00 0.00 78 1015.6
20260507224544 8 61 0.0 4.8 0.00 0.00 0.00 77 1015.5
20260507224036 8 0 1.6 4.8 0.00 0.00 0.00 77 1015.5
20260507223538 8 57 0.0 4.8 0.00 0.00 0.00 77 1015.4
20260507223043 8 57 0.0 4.8 0.00 0.00 0.00 78 1015.4
20260507222535 8 47 1.6 4.8 0.00 0.00 0.00 78 1015.5
20260507222036 8 57 1.6 4.8 0.00 0.00 0.00 78 1015.5
20260507221551 8 0 0.0 3.2 0.00 0.00 0.00 79 1015.4
20260507221036 8 57 0.0 3.2 0.00 0.00 0.00 78 1015.4
20260507220539 8 57 0.0 3.2 0.00 0.00 0.00 78 1015.4
20260507220041 8 57 0.0 3.2 0.00 0.00 0.00 77 1015.4
20260507215535 8 0 0.0 3.2 0.00 0.00 0.00 77 1015.4
20260507215035 8 0 0.0 3.2 0.00 0.00 0.00 77 1015.2
20260507214545 8 0 0.0 3.2 0.00 0.00 0.00 77 1015.1
20260507214036 9 0 0.0 3.2 0.00 0.00 0.00 76 1015.0
20260507213537 9 57 0.0 3.2 0.00 0.00 0.00 76 1015.0
20260507213043 9 0 0.0 3.2 0.00 0.00 0.00 76 1015.0
20260507212536 9 0 0.0 3.2 0.00 0.00 0.00 75 1015.0
20260507212038 9 57 0.0 3.2 0.00 0.00 0.00 74 1014.8
20260507211551 10 57 0.0 4.8 0.00 0.00 0.00 73 1014.7
20260507211035 10 57 0.0 4.8 0.00 0.00 0.00 72 1014.7
20260507210535 10 56 0.0 4.8 0.00 0.00 0.00 71 1014.5
20260507210048 10 29 0.0 4.8 0.00 0.00 0.00 70 1014.5
20260507205535 11 0 0.0 3.2 0.00 0.00 0.00 68 1014.5
20260507205037 11 0 0.0 11.3 0.00 0.00 0.00 66 1014.6
20260507204541 11 0 1.6 11.3 0.00 0.00 0.00 64 1014.5
20260507204034 11 0 0.0 8.0 0.00 0.00 0.00 64 1014.3
20260507203536 11 0 1.6 8.0 0.00 0.00 0.00 63 1014.4
20260507203041 11 35 0.0 6.4 0.00 0.00 0.00 64 1014.3
20260507202539 11 0 0.0 6.4 0.00 0.00 0.00 64 1014.3
20260507202036 11 323 0.0 6.4 0.00 0.00 0.00 63 1014.3
20260507201539 11 0 0.0 4.8 0.00 0.00 0.00 64 1014.4
20260507201036 11 277 0.0 6.4 0.00 0.00 0.00 64 1014.2
20260507200536 11 355 0.0 6.4 0.00 0.00 0.00 64 1014.1
20260507200043 11 66 1.6 16.1 0.00 0.00 0.00 64 1014.0
20260507195536 11 237 1.6 16.1 0.00 0.00 0.00 63 1014.0
20260507195036 11 157 0.0 16.1 0.00 0.00 0.00 63 1013.8
20260507194542 11 0 0.0 3.2 0.00 0.00 0.00 64 1013.7
20260507194035 11 0 0.0 4.8 0.00 0.00 0.00 63 1013.7
20260507193536 11 244 0.0 4.8 0.00 0.00 0.00 62 1013.5
20260507193051 11 244 0.0 4.8 0.00 0.00 0.00 62 1013.4
20260507192536 12 0 0.0 4.8 0.00 0.00 0.00 62 1013.2
20260507192036 12 186 0.0 4.8 0.00 0.00 0.00 61 1013.1
20260507191540 12 0 0.0 4.8 0.00 0.00 0.00 61 1013.1
20260507191039 12 22 0.0 4.8 0.00 0.00 0.00 61 1012.8
20260507190536 12 77 1.6 4.8 0.00 0.00 0.00 60 1012.9
20260507190046 12 0 0.0 4.8 0.00 0.00 0.00 61 1012.7
20260507185536 12 0 0.0 4.8 0.00 0.00 0.00 61 1012.8
20260507185035 12 0 0.0 6.4 0.00 0.00 0.00 60 1012.7
20260507184550 12 0 0.0 6.4 0.00 0.00 0.00 61 1012.7
20260507184039 12 0 0.0 6.4 0.00 0.00 0.00 60 1012.5
20260507183535 12 144 0.0 6.4 0.00 0.00 0.00 59 1012.6
20260507183042 12 0 0.0 6.4 0.00 0.00 0.00 60 1012.4
20260507182537 12 279 0.0 4.8 0.00 0.00 0.00 59 1012.4
20260507182034 13 0 0.0 4.8 0.00 0.00 0.00 59 1012.6
20260507181542 13 0 0.0 8.0 0.00 0.00 0.00 59 1012.4
20260507181035 13 0 0.0 11.3 0.00 0.00 0.00 60 1012.4
20260507180536 13 0 1.6 11.3 0.00 0.00 0.00 60 1012.2
20260507180051 13 11 1.6 8.0 0.00 0.00 0.00 58 1012.1
20260507175536 13 32 1.6 8.0 0.00 0.00 0.00 58 1012.1
20260507175036 14 0 0.0 4.8 0.00 0.00 0.00 59 1012.1
20260507174607 14 0 1.6 4.8 0.00 0.00 0.00 60 1011.9
20260507174035 14 268 1.6 4.8 0.00 0.00 0.00 58 1011.9
20260507173536 14 160 0.0 3.2 0.00 0.00 0.00 57 1011.9
20260507173050 14 160 0.0 8.0 0.00 0.00 0.00 59 1011.8
20260507172535 14 0 3.2 8.0 0.00 0.00 0.00 58 1011.8
20260507172036 15 161 0.0 9.7 0.00 0.00 0.00 57 1011.8
20260507171559 15 202 1.6 9.7 0.00 0.00 0.00 57 1011.8
20260507171036 15 161 3.2 8.0 0.00 0.00 0.00 57 1011.8
20260507170536 15 0 1.6 11.3 0.00 0.00 0.00 57 1011.6
20260507170051 15 136 1.6 11.3 0.00 0.00 0.00 58 1011.6
20260507165539 15 264 1.6 11.3 0.00 0.00 0.00 58 1011.7
20260507165035 15 278 3.2 14.5 0.00 0.00 0.00 58 1011.6
20260507164541 15 218 3.2 17.7 0.00 0.00 0.00 57 1011.6
20260507164037 15 294 4.8 17.7 0.00 0.00 0.00 55 1011.7
20260507163536 16 221 3.2 19.3 0.00 0.00 0.00 55 1011.7
20260507163049 16 140 4.8 19.3 0.00 0.00 0.00 55 1011.7
20260507162536 16 186 3.2 12.9 0.00 0.00 0.00 54 1011.5
20260507162036 16 265 4.8 12.9 0.00 0.00 0.00 53 1011.6
20260507161552 16 277 3.2 17.7 0.00 0.00 0.00 54 1011.5
20260507161037 16 247 4.8 17.7 0.00 0.00 0.00 54 1011.6
20260507160536 16 164 4.8 11.3 0.00 0.00 0.00 53 1011.6
20260507160110 17 169 4.8 12.9 0.00 0.00 0.00 52 1011.5
20260507155535 17 246 4.8 14.5 0.00 0.00 0.00 53 1011.5
20260507155036 17 190 4.8 14.5 0.00 0.00 0.00 51 1011.6
20260507154543 17 254 4.8 22.5 0.00 0.00 0.00 52 1011.5
20260507154037 17 301 4.8 22.5 0.00 0.00 0.00 52 1011.5
20260507153537 17 220 6.4 17.7 0.00 0.00 0.00 51 1011.3
20260507153048 17 273 6.4 16.1 0.00 0.00 0.00 50 1011.4
20260507152537 17 217 4.8 16.1 0.00 0.00 0.00 50 1011.4
20260507152038 17 211 6.4 16.1 0.00 0.00 0.00 50 1011.3
20260507151553 17 179 6.4 20.9 0.00 0.00 0.00 49 1011.3
20260507151036 17 244 6.4 20.9 0.00 0.00 0.00 49 1011.4
20260507150536 17 236 6.4 14.5 0.00 0.00 0.00 49 1011.4
20260507150053 17 252 4.8 16.1 0.00 0.00 0.00 49 1011.3
20260507145540 17 185 4.8 19.3 0.00 0.00 0.00 50 1011.4
20260507145037 17 232 4.8 19.3 0.00 0.00 0.00 48 1011.4
20260507144551 17 202 6.4 19.3 0.00 0.00 0.00 49 1011.6
20260507144036 17 189 4.8 19.3 0.00 0.00 0.00 47 1011.4
20260507143536 17 173 3.2 17.7 0.00 0.00 0.00 47 1011.5
20260507143055 17 140 4.8 17.7 0.00 0.00 0.00 47 1011.4
20260507142535 17 226 6.4 19.3 0.00 0.00 0.00 46 1011.4
20260507142036 17 213 4.8 20.9 0.00 0.00 0.00 45 1011.4
20260507141602 17 237 6.4 20.9 0.00 0.00 0.00 45 1011.4
20260507141036 17 194 6.4 17.7 0.00 0.00 0.00 45 1011.4
20260507140536 17 163 6.4 17.7 0.00 0.00 0.00 46 1011.6
20260507140048 17 136 6.4 20.9 0.00 0.00 0.00 45 1011.6
20260507135538 17 170 6.4 20.9 0.00 0.00 0.00 47 1011.5
20260507135037 17 222 4.8 19.3 0.00 0.00 0.00 48 1011.6
20260507134549 18 146 8.0 19.3 0.00 0.00 0.00 47 1011.4
20260507134036 18 146 3.2 20.9 0.00 0.00 0.00 47 1011.5
20260507133537 17 204 6.4 20.9 0.00 0.00 0.00 46 1011.4
20260507133043 17 168 4.8 20.9 0.00 0.00 0.00 47 1011.5
20260507132537 17 205 6.4 22.5 0.00 0.00 0.00 47 1011.6
20260507132036 17 231 8.0 22.5 0.00 0.00 0.00 41 1011.7
20260507131609 17 219 6.4 20.9 0.00 0.00 0.00 43 1011.7
20260507131038 17 165 6.4 19.3 0.00 0.00 0.00 44 1011.8
20260507130538 17 186 4.8 19.3 0.00 0.00 0.00 45 1011.9
20260507130050 17 259 6.4 20.9 0.00 0.00 0.00 45 1011.7
20260507125537 17 160 8.0 20.9 0.00 0.00 0.00 44 1011.8
20260507125035 17 223 8.0 22.5 0.00 0.00 0.00 41 1011.8
20260507124552 17 161 4.8 22.5 0.00 0.00 0.00 44 1011.7
20260507124036 17 221 4.8 17.7 0.00 0.00 0.00 43 1011.9
20260507123536 17 302 4.8 19.3 0.00 0.00 0.00 43 1011.9
20260507123046 17 262 4.8 19.3 0.00 0.00 0.00 44 1012.0
20260507122535 17 201 8.0 17.7 0.00 0.00 0.00 40 1012.0
20260507122037 17 216 4.8 14.5 0.00 0.00 0.00 39 1011.9
20260507121549 17 222 4.8 22.5 0.00 0.00 0.00 41 1011.9
20260507121036 16 194 4.8 22.5 0.00 0.00 0.00 41 1012.0
20260507120532 16 300 6.4 19.3 0.00 0.00 0.00 40 1012.0
20260507120050 16 212 8.0 19.3 0.00 0.00 0.00 40 1012.2
20260507115536 16 134 6.4 19.3 0.00 0.00 0.00 40 1012.0
20260507115036 16 238 8.0 19.3 0.00 0.00 0.00 40 1012.2
20260507114546 16 257 4.8 19.3 0.00 0.00 0.00 43 1012.1
20260507114042 16 194 4.8 20.9 0.00 0.00 0.00 44 1012.1
20260507113534 16 182 6.4 20.9 0.00 0.00 0.00 44 1012.1
20260507113105 16 159 3.2 12.9 0.00 0.00 0.00 47 1012.2
20260507112538 15 88 3.2 16.1 0.00 0.00 0.00 45 1012.3
20260507112036 15 136 4.8 20.9 0.00 0.00 0.00 46 1012.4
20260507111543 15 202 4.8 20.9 0.00 0.00 0.00 47 1012.4
20260507111035 15 208 9.7 17.7 0.00 0.00 0.00 46 1012.4
20260507110535 15 206 3.2 16.1 0.00 0.00 0.00 50 1012.5
20260507110043 15 152 6.4 16.1 0.00 0.00 0.00 49 1012.4
20260507105537 15 176 4.8 17.7 0.00 0.33 0.00 48 1012.4
20260507105036 14 161 4.8 19.3 0.00 0.33 0.00 48 1012.5
20260507104606 14 163 6.4 19.3 0.00 0.33 0.00 48 1012.6
20260507104036 14 247 3.2 16.1 0.00 0.33 0.00 50 1012.6
20260507103538 14 184 4.8 16.1 0.00 0.33 0.00 51 1012.7
20260507103049 14 233 4.8 16.1 0.00 0.33 0.00 52 1012.7
20260507102536 13 169 8.0 17.7 0.00 0.33 0.00 52 1012.8
20260507102036 13 136 6.4 17.7 0.00 0.33 0.00 53 1012.9
20260507101545 13 204 4.8 16.1 0.00 0.33 0.00 54 1012.9
20260507101037 13 192 6.4 16.1 0.00 0.33 0.00 52 1012.9
20260507100536 13 159 4.8 16.1 0.00 0.33 0.00 50 1013.0
20260507100054 13 184 6.4 16.1 0.00 0.33 0.00 49 1013.1
20260507095540 13 108 3.2 14.5 0.00 0.33 0.00 54 1013.1
20260507095037 12 179 3.2 14.5 0.00 0.33 0.00 54 1013.1
20260507094550 12 219 4.8 14.5 0.00 0.33 0.00 55 1013.1
20260507094039 12 120 3.2 14.5 0.00 0.33 0.00 53 1013.1
20260507093536 12 141 3.2 16.1 0.00 0.33 0.00 57 1013.0
20260507093049 12 164 4.8 16.1 0.00 0.33 0.00 54 1013.0
20260507092534 11 0 3.2 14.5 0.00 0.33 0.00 55 1013.0
20260507092037 11 203 3.2 14.5 0.00 0.33 0.00 57 1013.0
20260507091550 11 168 4.8 12.9 0.00 0.33 0.00 56 1013.0
20260507091041 11 219 3.2 11.3 0.00 0.33 0.00 58 1013.0
20260507090536 11 215 3.2 14.5 0.00 0.33 0.00 58 1013.0
20260507090043 11 159 3.2 14.5 0.00 0.33 0.00 59 1013.1
20260507085536 11 178 3.2 11.3 0.00 0.33 0.00 61 1013.0
20260507085038 11 124 3.2 9.7 0.00 0.33 0.00 63 1013.0
20260507084553 10 137 3.2 9.7 0.00 0.33 0.00 63 1012.8
20260507084035 10 132 3.2 8.0 0.00 0.33 0.00 62 1013.0
20260507083537 10 180 1.6 8.0 0.00 0.33 0.00 62 1013.0
20260507083052 10 0 1.6 8.0 0.00 0.33 0.00 62 1013.0
20260507082535 10 165 1.6 8.0 0.00 0.33 0.00 62 1013.0
20260507082036 9 0 1.6 8.0 0.00 0.33 0.00 59 1013.0
20260507081542 8 153 0.0 8.0 0.00 0.33 0.00 68 1013.0
20260507081036 8 186 3.2 8.0 0.00 0.33 0.00 67 1013.0
20260507080536 8 182 1.6 8.0 0.00 0.33 0.00 70 1013.0
20260507080052 8 0 1.6 6.4 0.00 0.33 0.00 70 1013.1
20260507075540 8 136 0.0 6.4 0.00 0.36 0.00 71 1013.0
20260507075036 7 173 1.6 4.8 0.00 0.36 0.00 71 1013.0
20260507074548 7 0 0.0 6.4 0.00 0.36 0.00 71 1013.0
20260507074035 7 146 0.0 6.4 0.00 0.36 0.00 69 1013.0
20260507073536 7 0 0.0 6.4 0.00 0.36 0.00 69 1013.0
20260507073044 7 0 0.0 6.4 0.00 0.36 0.00 74 1013.0
20260507072536 6 0 1.6 8.0 0.00 0.36 0.00 74 1013.0
20260507072035 6 0 1.6 8.0 0.00 0.36 0.00 76 1013.0
20260507071546 6 0 1.6 4.8 0.00 0.36 0.00 78 1013.0
20260507071035 6 0 0.0 4.8 0.00 0.36 0.00 81 1013.0
20260507070535 6 145 0.0 3.2 0.00 0.36 0.00 81 1013.0
20260507070054 6 0 0.0 1.6 0.00 0.36 0.00 80 1013.0
20260507065538 5 0 0.0 1.6 0.00 0.36 0.00 79 1013.0
20260507065036 5 0 0.0 1.6 0.00 0.36 0.00 73 1013.1
20260507064546 5 0 0.0 1.6 0.00 0.36 0.00 74 1013.1
20260507064036 5 0 0.0 1.6 0.00 0.36 0.00 73 1013.1
20260507063535 5 0 0.0 1.6 0.00 0.36 0.00 74 1013.1
20260507063041 5 0 0.0 1.6 0.00 0.36 0.00 75 1013.2
20260507062536 5 0 0.0 1.6 0.00 0.36 0.00 77 1013.2
20260507062037 5 0 0.0 3.2 0.00 0.36 0.00 80 1013.1
20260507061545 5 0 0.0 3.2 0.00 0.36 0.00 80 1013.0
20260507061036 5 0 0.0 1.6 0.00 0.36 0.00 77 1012.9
20260507060535 5 88 0.0 3.2 0.00 0.36 0.00 75 1013.0
20260507060045 4 0 0.0 3.2 0.00 0.36 0.00 75 1013.0
20260507055536 4 88 0.0 3.2 0.00 0.51 0.00 74 1012.9
20260507055033 4 88 0.0 3.2 0.00 0.51 0.00 74 1012.9
20260507054544 4 0 0.0 3.2 0.00 0.51 0.00 73 1012.9
20260507054037 4 0 0.0 3.2 0.00 0.51 0.00 73 1013.0
20260507053535 4 0 0.0 1.6 0.00 0.51 0.00 72 1013.0
20260507053042 4 0 0.0 1.6 0.00 0.51 0.00 73 1012.8
20260507052535 4 0 0.0 1.6 0.00 0.51 0.00 74 1012.8
20260507052035 4 0 0.0 1.6 0.00 0.51 0.00 72 1012.8
20260507051549 4 88 0.0 3.2 0.00 0.51 0.00 72 1012.8
20260507051034 4 0 0.0 3.2 0.00 0.51 0.00 72 1012.7
20260507050538 4 0 0.0 3.2 0.00 0.51 0.00 71 1012.6
20260507050105 4 88 0.0 3.2 0.00 0.51 0.00 71 1012.5
20260507045534 4 0 0.0 3.2 0.00 0.56 0.00 71 1012.4
20260507045034 4 0 0.0 3.2 0.00 0.56 0.00 71 1012.4
20260507044552 4 88 0.0 1.6 0.00 0.56 0.00 71 1012.3
20260507044039 4 0 0.0 3.2 0.00 0.56 0.00 71 1012.4
20260507043535 4 0 0.0 3.2 0.00 0.56 0.00 72 1012.4
20260507043042 4 0 0.0 3.2 0.00 0.56 0.00 71 1012.3
20260507042538 3 0 0.0 3.2 0.00 0.56 0.00 72 1012.1
20260507042034 3 0 0.0 3.2 0.00 0.56 0.00 73 1012.2
20260507041544 3 0 0.0 3.2 0.00 0.56 0.00 73 1012.1
20260507041034 4 0 0.0 3.2 0.00 0.56 0.00 73 1012.1
20260507040537 4 0 0.0 3.2 0.00 0.56 0.00 73 1012.1
20260507040045 4 88 0.0 3.2 0.00 0.56 0.00 74 1012.1
20260507035535 3 0 0.0 3.2 0.00 0.56 0.00 75 1012.1
20260507035036 3 88 0.0 3.2 0.00 0.56 0.00 76 1012.0
20260507034542 3 88 0.0 3.2 0.00 0.56 0.00 76 1012.0
20260507034036 4 88 0.0 1.6 0.00 0.56 0.00 75 1012.0
20260507033535 4 88 0.0 3.2 0.00 0.56 0.00 75 1012.0
20260507033047 4 0 0.0 3.2 0.00 0.56 0.00 73 1012.1
20260507032534 4 88 0.0 1.6 0.00 0.56 0.00 73 1012.0
20260507032034 4 0 0.0 3.2 0.00 0.56 0.00 73 1012.0
20260507031541 4 0 0.0 3.2 0.00 0.56 0.00 74 1012.0
20260507031038 4 88 0.0 3.2 0.00 0.56 0.00 73 1011.9
20260507030538 5 0 0.0 3.2 0.00 0.56 0.00 72 1012.0
20260507030044 5 0 0.0 3.2 0.00 0.56 0.00 71 1011.9
20260507025536 4 0 0.0 3.2 0.00 0.56 0.00 71 1012.0
20260507025036 4 88 0.0 3.2 0.00 0.56 0.00 72 1012.0
20260507024548 5 0 0.0 1.6 0.00 0.56 0.00 71 1012.0
20260507024034 4 0 0.0 3.2 0.00 0.56 0.00 71 1012.0
20260507023534 4 88 0.0 3.2 0.00 0.56 0.00 74 1011.9
20260507023043 4 0 0.0 3.2 0.00 0.56 0.00 75 1012.0
20260507022533 4 0 0.0 3.2 0.00 0.56 0.00 75 1012.0
20260507022035 4 0 0.0 3.2 0.00 0.56 0.00 75 1011.9
20260507021553 4 0 0.0 3.2 0.00 0.56 0.00 75 1011.9
20260507021032 4 0 0.0 3.2 0.00 0.56 0.00 74 1012.0
20260507020533 4 0 0.0 3.2 0.00 0.56 0.00 75 1011.8
20260507020042 5 88 0.0 4.8 0.00 0.56 0.00 74 1011.8
20260507015538 5 88 1.6 4.8 0.00 0.56 0.00 74 1011.8
20260507015036 5 0 0.0 4.8 0.00 0.56 0.00 74 1011.8
20260507014546 5 0 0.0 4.8 0.00 0.56 0.00 74 1011.8
20260507014036 5 29 0.0 3.2 0.00 0.56 0.00 75 1011.8
20260507013534 5 29 0.0 3.2 0.00 0.56 0.00 75 1011.9
20260507013045 5 0 0.0 3.2 0.00 0.56 0.00 76 1011.8
20260507012535 5 0 0.0 3.2 0.00 0.56 0.00 75 1011.8
20260507012034 5 0 0.0 3.2 0.00 0.56 0.00 75 1011.8
20260507011545 5 131 0.0 3.2 0.00 0.56 0.00 74 1011.8
20260507011032 5 0 0.0 3.2 0.00 0.56 0.00 75 1011.7
20260507010533 5 45 0.0 3.2 0.00 0.56 0.00 75 1011.7
20260507010046 5 45 0.0 3.2 0.00 0.56 0.00 75 1011.8
20260507005535 5 45 0.0 3.2 0.00 0.56 0.00 74 1011.8
20260507005037 5 0 0.0 3.2 0.00 0.56 0.00 73 1011.9
20260507004540 5 0 0.0 4.8 0.00 0.56 0.00 73 1011.8
20260507004036 5 45 0.0 4.8 0.00 0.56 0.00 74 1011.9
20260507003535 5 45 0.0 3.2 0.00 0.56 0.00 74 1011.9
20260507003050 5 45 0.0 3.2 0.00 0.56 0.00 73 1011.9
20260507002536 6 45 0.0 4.8 0.00 0.56 0.00 73 1011.9
20260507002036 6 0 0.0 4.8 0.00 0.56 0.00 73 1011.9
20260507001544 5 44 0.0 4.8 0.00 0.56 0.00 73 1011.9
20260507001035 5 0 0.0 4.8 0.00 0.56 0.00 73 1011.9
20260507000538 5 63 0.0 6.4 0.00 0.56 0.00 73 1011.9
20260507000054 5 39 1.6 6.4 0.00 0.56 0.00 72 1011.9
20260506235536 5 41 0.0 4.8 0.00 0.56 0.00 72 1011.9
20260506235034 6 128 0.0 3.2 0.00 0.56 0.00 71 1012.0
20260506234550 6 0 0.0 4.8 0.00 0.56 0.00 72 1012.0
20260506234035 6 128 0.0 4.8 0.00 0.56 0.00 72 1011.9
20260506233535 6 128 0.0 3.2 0.00 0.56 0.00 73 1011.9
20260506233048 6 0 0.0 4.8 0.00 0.56 0.00 73 1011.9